Temperature
19 19 19 19 19 19 19 19 19 19 19 19 19 19 19 19 19 19 19 19 19 19 19 19 19 18 18 18 18 18 18 18 18 18 18 18 18 18 18 18 18 18 18
19 19 19 19 19 19 19 19 19 19 19 19 19 19 19 19 19 19 19 19 19 19 19 19 19 19 19 18 18 18 18 18 18 18 18 18 18 18 18 18 18 18 18
20 19 19 19 19 19 19 19 19 19 19 19 19 19 19 19 19 19 19 19 19 19 19 19 19 19 19 18 18 18 18 18 18 18 18 18 18 18 18 18 18 18 18
20 19 19 19 19 19 19 19 19 19 19 19 19 19 19 19 19 19 19 19 19 19 19 19 19 19 19 19 18 18 18 18 18 18 18 18 18 18 18 18 18 18 18
20 20 19 19 19 19 19 19 19 19 19 19 19 19 19 19 19 19 19 19 19 19 19 19 19 19 18 18 18 18 18 18 18 18 18 18 18 18 18 18 18 18 18
20 20 20 19 19 19 19 19 19 19 19 19 19 19 19 19 19 19 19 19 19 19 19 19 19 18 18 18 18 18 18 18 18 18 18 18 18 18 18 18 18 18 18
20 20 20 19 19 19 19 19 19 19 19 19 19 19 19 19 19 19 19 19 19 19 19 19 19 19 19 19 18 18 18 18 18 18 18 18 18 18 18 18 18 18 18
20 20 19 19 19 19 19 19 19 19 19 19 19 19 19 19 19 19 19 19 19 19 19 19 19 19 19 18 18 18 18 18 18 18 18 18 18 18 18 18 18 18 18
20 20 20 19 19 19 19 19 19 19 19 19 19 19 19 19 19 19 19 19 19 19 19 19 19 19 19 18 18 18 18 18 18 18 18 18 18 18 18 18 18 18 18
20 20 20 20 20 19 19 19 19 19 19 19 19 19 19 19 19 19 19 19 19 19 19 19 19 19 18 18 18 18 18 18 18 18 18 18 18 18 18 18 18 18 18
20 20 20 20 19 19 19 19 19 19 19 19 19 19 19 19 19 19 19 19 19 19 19 19 19 19 18 18 18 18 18 18 18 18 18 18 18 18 18 18 18 18 18
20 20 20 20 19 19 19 19 19 19 19 19 19 19 19 19 19 19 19 19 19 19 19 19 19 19 19 19 18 19 19 18 18 18 18 19 18 18 18 18 18 18 18
20 20 20 20 19 19 19 19 19 19 19 19 19 19 19 19 19 19 19 19 19 19 19 18 18 19 19 19 18 19 19 18 18 18 19 19 19 18 18 18 18 18 18
20 20 20 20 20 19 19 19 19 19 19 19 19 19 19 19 19 19 19 19 19 19 19 18 19 19 19 19 19 19 19 19 19 19 18 18 19 18 18 18 18 18 18
21 20 20 20 20 20 19 19 19 19 19 19 19 19 19 19 19 19 19 19 19 19 19 19 19 19 19 19 19 19 19 19 18 19 19 19 18 18 18 18 18 18 18
21 21 20 20 20 20 20 20 19 19 19 19 19 19 19 19 19 19 19 19 19 19 19 19 19 19 19 19 19 19 19 19 18 19 19 19 18 18 18 18 18 18 18
21 21 21 20 20 20 20 20 19 19 19 19 19 19 19 19 19 19 19 19 19 19 19 19 18 18 19 19 19 19 19 19 19 19 19 19 18 18 18 18 18 18 18
21 21 21 20 20 20 20 20 19 19 19 19 19 19 19 19 19 19 19 19 19 19 19 19 18 18 18 19 19 19 19 19 19 19 19 19 19 19 18 18 18 18 18
22 21 21 21 20 20 20 20 20 19 19 19 19 19 19 19 19 19 19 19 19 19 19 18 18 18 18 19 19 19 19 19 19 19 19 19 19 19 19 18 18 18 18
22 21 21 21 21 20 20 20 20 19 19 19 19 19 19 19 19 19 19 19 19 19 18 18 18 18 18 18 19 19 19 19 19 19 19 19 19 19 18 18 18 18 18
22 21 21 21 21 20 20 20 20 20 19 19 19 19 19 19 19 19 19 19 19 19 19 18 18 18 18 18 19 19 19 19 19 19 19 19 19 19 18 18 18 18 18
22 21 21 21 21 21 20 20 20 20 19 19 19 19 19 19 19 19 19 19 19 19 19 19 19 18 18 18 18 18 18 18 19 19 19 19 19 19 18 18 18 18 18
22 22 21 21 21 21 20 20 20 19 19 19 19 19 19 19 19 19 19 19 19 19 19 19 19 18 18 18 18 18 18 18 18 18 18 18 18 18 18 18 18 18 18
22 22 21 21 21 21 20 20 20 20 20 20 19 19 19 19 19 19 19 19 19 19 19 19 18 18 18 18 18 18 18 18 18 18 18 18 18 18 18 18 18 18 18
22 22 21 21 21 21 20 20 20 20 20 20 19 19 19 19 19 19 19 19 19 19 18 18 18 18 18 18 18 18 18 18 18 18 18 18 18 18 18 18 18 18 18
22 22 22 21 21 21 21 20 20 20 20 20 19 19 19 19 19 19 19 19 19 18 18 18 18 18 18 18 18 18 18 18 18 18 18 18 18 18 18 18 18 17 17
Wind_Speed
3 5 11 13 15 15 15 15 15 16 17 18 18 18 18 17 17 16 16 15 14 13 12 12 11 11 10 10 10 10 10 10 11 12 12 11 12 12 12 12 12 11 13
7 9 12 14 15 15 14 14 14 15 17 17 17 17 17 16 16 15 14 14 13 12 11 11 10 10 9 9 9 9 9 9 9 10 10 10 10 11 11 12 11 11 13
9 9 12 14 15 15 14 14 14 15 16 17 16 16 16 15 15 14 14 13 12 11 11 10 9 9 8 8 8 8 7 7 8 8 8 8 8 9 10 11 12 13 13
10 10 12 15 15 15 15 14 15 16 16 16 16 15 15 14 13 13 12 11 11 10 10 9 8 7 7 7 7 6 6 6 6 6 6 6 7 9 10 11 12 12 13
9 10 13 15 15 15 15 15 15 16 16 15 15 14 13 13 12 12 11 11 10 9 9 8 7 6 6 5 5 4 4 4 4 4 5 5 6 8 10 11 11 12 12
9 11 13 15 15 16 15 15 15 15 15 14 14 14 13 12 12 11 10 10 9 9 8 7 6 5 4 3 3 2 2 2 3 4 4 5 6 9 10 11 11 11 11
9 10 13 15 15 15 15 15 15 14 14 14 13 12 12 11 11 10 9 9 8 8 7 6 5 4 4 3 2 2 1 2 2 4 5 5 7 9 11 11 11 11 11
11 9 12 15 15 15 15 14 14 13 13 12 12 11 11 10 10 9 8 8 7 7 7 6 6 5 4 4 3 2 2 2 3 4 5 6 8 10 11 11 11 11 11
10 9 9 11 13 14 14 14 13 13 12 11 11 10 10 9 9 8 8 7 7 7 7 7 6 6 5 5 4 4 3 3 4 4 4 6 9 11 11 11 11 11 11
9 8 7 8 10 11 12 13 13 12 11 11 10 10 10 9 8 8 8 7 7 8 7 7 6 6 5 5 6 5 4 3 4 5 5 7 11 12 12 12 12 12 12
9 8 7 7 8 9 10 11 12 12 11 10 9 9 8 6 7 7 8 8 8 8 8 8 7 6 5 6 7 7 5 4 5 6 7 9 12 12 13 13 13 13 12
11 9 8 8 8 9 9 9 9 9 9 8 7 6 5 6 6 7 8 9 9 9 9 8 7 6 6 5 6 6 4 5 5 7 8 11 12 13 13 13 13 13 13
12 11 9 9 9 8 6 7 7 7 7 7 7 7 6 5 5 5 5 6 6 7 6 5 5 6 6 6 5 5 5 5 6 7 9 12 13 13 14 14 14 13 13
10 10 10 9 8 8 8 6 6 5 5 5 7 8 6 3 3 3 3 4 4 4 4 4 4 6 6 7 7 6 5 5 6 7 9 13 14 14 14 14 14 13 13
9 9 9 9 8 7 6 5 6 5 5 7 7 8 7 4 3 3 3 4 4 5 4 4 4 5 5 5 5 5 5 6 7 8 9 12 13 14 15 14 13 13 13
9 9 8 9 8 7 6 5 4 5 6 6 6 8 8 6 4 3 2 2 3 5 5 5 4 4 3 2 2 3 4 5 7 8 8 10 14 15 15 14 14 14 14
10 9 8 9 8 8 7 6 5 5 6 5 5 7 7 7 5 3 2 2 3 4 4 3 3 2 2 2 2 2 2 4 6 7 8 7 9 12 15 15 14 15 15
10 9 9 9 9 8 6 5 4 4 4 5 6 6 6 6 6 4 2 2 3 2 2 2 2 1 1 1 1 2 2 2 4 5 7 8 8 8 11 14 15 15 14
11 10 8 8 9 8 6 4 4 4 4 4 5 5 5 5 6 4 2 2 2 1 1 2 1 2 1 1 2 2 2 2 3 4 5 7 8 8 9 11 13 14 14
10 10 9 8 8 7 4 3 2 2 2 3 4 5 5 5 5 4 2 2 2 1 0 0 1 1 2 2 2 2 2 2 2 3 4 4 6 8 9 9 9 10 12
9 9 8 7 7 6 4 3 3 2 2 2 3 5 5 5 5 4 2 2 1 1 1 1 1 0 1 1 1 2 2 1 1 2 2 3 4 6 7 8 8 8 8
10 9 9 8 7 6 5 4 3 3 2 2 2 3 5 5 4 3 2 2 2 1 1 1 1 1 1 1 2 1 2 3 2 2 1 2 2 3 4 7 7 8 8
10 10 10 8 7 6 5 3 2 1 1 0 1 2 2 4 4 3 3 2 2 2 2 1 1 2 1 1 1 3 2 2 2 3 1 1 1 2 3 4 6 8 9
12 10 9 9 8 7 6 5 5 4 3 3 2 2 2 3 3 4 4 3 3 2 2 2 2 2 2 1 1 1 2 3 2 2 3 2 2 2 3 3 3 5 7
12 11 9 9 8 7 7 6 6 4 4 2 2 2 2 2 2 3 3 3 2 2 2 2 1 1 2 2 1 1 0 0 2 2 2 2 2 1 2 2 2 3 5
11 10 10 10 9 8 7 7 7 6 5 3 3 3 2 1 1 2 3 3 3 2 3 2 2 2 1 1 1 1 1 1 2 2 2 2 2 2 2 1 1 2 4
Wind_Direction
146 146 130 124 119 118 118 116 115 116 117 117 116 116 117 117 117 117 116 116 117 117 115 112 110 110 110 110 110 110 112 114 114 117 121 124 125 125 125 123 121 122 125
145 140 131 126 123 121 119 120 122 124 123 122 119 119 119 120 120 119 119 119 119 119 118 116 115 113 112 113 113 114 115 117 119 122 123 123 127 129 130 128 128 131 130
136 138 132 129 123 122 121 121 126 129 127 125 123 122 122 122 123 122 123 123 122 121 121 121 119 116 115 116 118 118 120 121 123 124 123 121 127 131 134 136 136 135 134
136 135 131 129 124 124 122 121 126 129 128 127 126 126 126 126 126 125 127 127 125 126 126 126 124 121 121 122 121 122 124 122 128 131 131 135 139 139 142 144 143 142 141
131 132 133 130 128 128 127 125 125 129 130 130 131 131 131 131 131 132 133 132 133 134 136 135 133 132 131 129 126 128 132 130 138 133 137 147 150 153 155 152 150 150 148
132 135 136 132 131 132 132 131 129 130 133 133 134 135 136 136 137 139 142 141 142 144 146 149 151 149 149 146 141 136 140 150 152 137 152 163 160 161 161 158 156 155 155
137 140 138 135 135 135 136 135 134 134 137 141 143 143 143 144 145 148 151 152 154 157 161 165 169 171 176 181 187 188 169 168 154 157 161 169 169 167 167 166 162 162 162
142 141 141 140 140 140 141 141 140 140 143 148 152 153 154 156 157 161 165 167 170 176 181 184 190 197 203 211 222 231 234 200 156 154 166 178 177 174 171 170 170 169 168
143 142 144 147 146 146 147 147 149 149 150 155 159 162 166 169 172 175 180 184 189 194 198 201 206 212 220 232 242 248 237 176 158 168 191 188 183 181 177 177 176 174 172
145 148 148 150 151 153 154 154 154 155 158 160 166 172 175 178 182 188 193 199 204 208 211 212 219 227 235 246 251 251 231 190 182 183 191 195 189 186 183 182 180 180 180
153 158 157 160 162 161 162 163 163 164 167 169 176 180 183 189 194 202 208 209 213 216 218 221 226 234 245 254 254 254 248 200 183 182 195 199 194 191 189 188 186 186 186
166 172 170 169 171 173 171 167 171 173 177 181 187 193 199 207 210 211 216 220 222 225 227 229 226 233 245 253 256 259 238 200 189 191 206 205 200 198 198 196 191 191 191
171 174 173 172 174 175 169 167 174 177 181 189 192 197 201 208 216 218 213 230 234 232 232 234 226 227 226 230 237 240 224 198 190 196 209 207 205 202 202 200 197 196 195
166 171 172 171 170 174 169 169 174 178 188 196 199 192 188 190 202 208 206 219 222 230 226 219 220 231 234 232 226 220 210 197 194 195 209 209 203 202 203 202 202 200 199
162 167 168 167 166 168 164 172 169 178 190 198 199 193 188 187 198 201 211 212 215 217 216 215 220 229 237 231 218 209 202 199 196 199 209 210 202 202 204 205 206 206 204
171 171 170 166 168 165 171 175 173 180 186 186 189 193 191 193 190 189 202 214 220 217 216 212 218 221 232 238 248 228 210 193 194 197 207 208 206 206 207 207 208 208 208
175 175 173 172 169 169 175 182 177 183 182 189 194 195 192 192 186 179 198 220 225 217 212 210 221 214 233 247 262 252 216 192 184 191 202 207 212 215 213 213 213 214 213
171 174 179 175 170 175 176 176 171 174 174 182 186 196 199 192 183 175 199 224 223 217 198 200 208 199 237 241 246 250 242 209 196 194 198 201 205 211 217 220 218 219 219
171 172 175 167 168 173 173 171 172 169 169 177 181 194 204 198 185 173 197 214 197 191 211 217 172 179 214 252 255 252 252 232 224 206 199 206 210 210 210 217 217 219 222
170 169 168 164 167 167 164 156 157 155 179 188 191 201 197 193 184 169 179 197 167 146 258 183 171 190 202 218 257 288 274 249 232 209 206 198 206 215 213 212 211 217 222
165 164 167 167 171 162 160 161 164 189 197 201 204 196 190 189 183 165 177 188 152 145 188 168 154 197 242 182 89 345 334 312 257 229 205 190 198 205 206 210 207 205 215
170 175 173 174 172 173 173 172 174 177 194 193 193 187 186 181 180 169 163 178 163 154 146 97 114 129 273 135 135 91 357 343 330 275 226 192 202 192 204 210 201 202 208
177 181 180 177 173 176 170 156 145 98 59 87 189 200 203 179 174 161 167 170 172 159 176 189 146 141 182 294 169 146 148 236 301 323 297 251 203 208 213 209 208 207 209
187 181 176 174 173 175 167 164 167 174 191 211 205 196 199 185 178 169 168 170 174 166 179 199 142 146 145 214 290 231 185 177 175 308 321 304 243 217 212 208 204 201 209
184 181 179 172 176 180 174 174 174 182 196 197 183 177 191 202 193 180 169 161 163 170 177 172 143 147 154 176 210 243 260 172 158 176 264 303 322 283 237 218 193 196 208
184 181 179 176 183 183 178 178 179 182 183 176 186 188 201 217 225 203 179 168 173 177 180 186 172 159 166 180 192 184 176 179 200 180 210 246 276 290 290 273 215 185 202
Height
1524 1524 1524 1524 1524 1525 1525 1526 1527 1528 1529 1530 1532 1533 1535 1536 1537 1539 1540 1541 1542 1543 1544 1545 1546 1547 1547 1548 1549 1550 1550 1551 1551 1552 1552 1552 1553 1553 1553 1554 1554 1555 1555
1524 1524 1525 1525 1526 1526 1527 1527 1528 1529 1530 1532 1533 1535 1536 1538 1539 1540 1541 1542 1543 1544 1545 1546 1547 1548 1549 1549 1550 1551 1552 1552 1552 1553 1553 1554 1554 1554 1554 1554 1555 1555 1556
1525 1525 1526 1527 1527 1528 1528 1528 1527 1529 1531 1533 1535 1536 1538 1539 1540 1541 1542 1544 1545 1546 1546 1547 1548 1549 1549 1550 1551 1552 1552 1553 1553 1554 1554 1554 1555 1555 1555 1555 1556 1556 1557
1526 1527 1527 1528 1529 1529 1530 1529 1528 1529 1532 1534 1536 1538 1539 1540 1542 1542 1544 1545 1546 1547 1547 1548 1549 1549 1550 1551 1552 1553 1553 1554 1554 1554 1555 1555 1555 1556 1556 1556 1556 1557 1557
1528 1528 1529 1530 1530 1531 1532 1532 1532 1533 1535 1537 1538 1539 1540 1542 1543 1544 1545 1546 1547 1547 1548 1549 1550 1550 1551 1552 1553 1554 1554 1555 1555 1555 1555 1556 1556 1556 1557 1557 1557 1557 1558
1529 1530 1531 1531 1532 1533 1533 1534 1535 1536 1537 1538 1539 1540 1542 1543 1544 1545 1546 1547 1548 1549 1549 1550 1551 1551 1552 1553 1553 1554 1555 1555 1555 1556 1556 1556 1556 1557 1557 1557 1557 1558 1558
1530 1531 1532 1533 1534 1535 1535 1536 1537 1538 1539 1540 1541 1542 1543 1544 1545 1546 1547 1548 1549 1549 1550 1551 1551 1552 1553 1553 1554 1555 1555 1555 1556 1556 1556 1556 1557 1557 1557 1558 1558 1558 1559
1531 1532 1533 1534 1535 1536 1537 1538 1538 1539 1540 1541 1542 1543 1544 1545 1546 1547 1548 1549 1549 1550 1551 1551 1552 1552 1553 1554 1554 1555 1555 1556 1556 1556 1556 1556 1557 1557 1557 1558 1558 1558 1559
1533 1534 1535 1536 1537 1538 1539 1539 1540 1541 1542 1543 1543 1544 1545 1546 1547 1548 1548 1549 1550 1550 1551 1552 1552 1553 1553 1554 1555 1555 1555 1555 1556 1556 1556 1556 1556 1557 1557 1557 1558 1558 1559
1535 1536 1536 1538 1538 1539 1540 1541 1542 1542 1543 1544 1545 1545 1546 1547 1548 1548 1549 1549 1550 1551 1551 1552 1552 1553 1553 1554 1554 1555 1555 1555 1555 1556 1556 1556 1556 1556 1557 1557 1558 1558 1558
1536 1537 1537 1539 1540 1540 1541 1542 1543 1544 1544 1545 1546 1546 1547 1547 1548 1549 1549 1550 1550 1551 1551 1552 1552 1553 1553 1554 1554 1555 1555 1555 1555 1555 1555 1555 1556 1556 1556 1557 1557 1557 1558
1535 1537 1538 1539 1540 1541 1542 1543 1544 1545 1545 1546 1547 1547 1547 1548 1548 1549 1549 1550 1550 1551 1551 1552 1552 1553 1553 1554 1554 1554 1554 1554 1554 1554 1555 1555 1555 1555 1556 1556 1556 1556 1557
1535 1537 1538 1539 1541 1542 1543 1543 1544 1545 1546 1546 1547 1547 1548 1548 1548 1548 1549 1550 1550 1551 1551 1552 1552 1552 1553 1553 1553 1554 1554 1554 1554 1554 1554 1554 1554 1555 1555 1555 1555 1555 1556
1535 1537 1538 1539 1540 1541 1543 1544 1544 1545 1546 1546 1547 1547 1548 1548 1548 1548 1549 1549 1550 1550 1551 1551 1551 1551 1552 1552 1552 1553 1553 1553 1553 1553 1553 1554 1554 1554 1554 1554 1555 1555 1555
1535 1536 1538 1539 1540 1541 1543 1544 1544 1545 1546 1546 1547 1547 1547 1547 1548 1548 1548 1549 1549 1549 1550 1550 1550 1551 1551 1551 1551 1551 1552 1552 1552 1552 1552 1553 1553 1554 1553 1554 1554 1554 1554
1534 1536 1537 1538 1540 1541 1542 1543 1544 1545 1546 1546 1547 1547 1547 1547 1547 1548 1548 1548 1548 1548 1549 1549 1549 1549 1550 1550 1550 1550 1550 1550 1550 1551 1551 1552 1552 1552 1552 1552 1553 1553 1553
1533 1535 1536 1537 1539 1540 1541 1543 1544 1545 1545 1546 1546 1547 1547 1547 1547 1547 1547 1547 1547 1547 1547 1547 1548 1548 1548 1548 1549 1548 1549 1549 1549 1549 1549 1550 1551 1551 1551 1551 1551 1551 1551
1532 1534 1535 1537 1538 1539 1541 1542 1543 1544 1544 1545 1545 1546 1546 1547 1547 1546 1546 1546 1546 1546 1546 1546 1546 1546 1546 1547 1547 1547 1547 1547 1547 1548 1548 1548 1549 1549 1549 1549 1549 1549 1549
1532 1533 1535 1536 1537 1538 1540 1541 1542 1543 1544 1544 1545 1545 1546 1546 1546 1546 1546 1545 1545 1545 1545 1545 1545 1545 1545 1545 1545 1545 1545 1546 1545 1546 1546 1546 1547 1547 1547 1547 1548 1547 1547
1530 1532 1534 1535 1536 1538 1539 1540 1542 1543 1543 1544 1544 1544 1545 1545 1545 1545 1545 1544 1544 1544 1544 1544 1543 1543 1543 1543 1543 1543 1543 1544 1544 1544 1544 1545 1545 1545 1545 1545 1545 1545 1545
1529 1530 1532 1534 1535 1536 1537 1539 1540 1541 1542 1543 1543 1543 1544 1544 1544 1544 1544 1543 1543 1543 1543 1542 1542 1542 1542 1542 1542 1541 1542 1542 1542 1543 1543 1543 1543 1543 1543 1543 1543 1543 1543
1527 1528 1530 1532 1533 1534 1536 1538 1539 1540 1541 1541 1542 1542 1542 1543 1543 1543 1543 1543 1542 1542 1541 1541 1541 1540 1540 1540 1540 1540 1540 1542 1541 1541 1541 1541 1541 1542 1542 1542 1542 1541 1541
1525 1526 1528 1530 1531 1533 1535 1536 1538 1539 1539 1540 1540 1540 1541 1541 1542 1542 1541 1541 1541 1541 1540 1540 1539 1539 1539 1539 1539 1540 1540 1539 1539 1540 1540 1540 1540 1540 1540 1540 1539 1539 1539
1522 1524 1526 1528 1530 1531 1533 1534 1535 1536 1536 1537 1538 1539 1539 1540 1540 1541 1540 1540 1540 1539 1539 1539 1538 1538 1538 1538 1538 1538 1539 1539 1539 1538 1539 1539 1539 1539 1538 1538 1538 1537 1537
1520 1522 1524 1526 1527 1529 1531 1532 1533 1534 1535 1536 1537 1537 1538 1538 1539 1539 1539 1539 1538 1538 1538 1537 1537 1537 1537 1537 1536 1537 1537 1537 1537 1537 1537 1537 1537 1537 1537 1536 1536 1535 1535
1518 1520 1522 1524 1525 1527 1528 1529 1531 1532 1533 1534 1534 1535 1536 1536 1536 1537 1537 1537 1537 1536 1536 1536 1535 1535 1535 1535 1535 1535 1535 1535 1535 1535 1535 1535 1535 1535 1535 1535 1534 1533 1533